Wind_Speed
2 2 1 1 1 0 1 1 1 2 2 1 1 1 1 0 0 1 1 1 2 2 2 1 2 2 2 3 3 3 3 3 2 3 3 3 3 3 3 3 3 3 4
3 2 1 1 1 1 2 2 2 2 2 2 2 2 2 2 2 2 1 1 1 1 1 1 2 2 3 3 3 3 3 3 3 3 3 4 4 4 4 4 4 4 4
3 3 3 3 2 2 3 4 4 4 4 3 3 4 4 4 3 3 3 2 2 2 2 2 3 3 3 4 3 4 4 4 4 4 4 5 5 5 6 6 6 6 6
4 3 3 3 3 4 3 4 5 5 5 5 5 5 5 5 4 4 4 4 4 4 4 4 4 4 5 5 5 6 5 5 5 5 6 6 7 7 7 7 8 8 8
4 4 4 4 4 5 4 4 4 5 6 7 7 6 6 6 6 6 6 6 6 7 7 7 7 7 7 7 7 8 8 7 7 7 7 8 8 8 8 9 9 10 10
5 5 5 6 6 6 5 6 6 6 7 8 8 8 8 8 7 8 8 8 9 9 9 9 9 9 9 9 10 10 10 10 10 10 10 10 10 10 11 11 11 11 12
6 5 6 6 7 7 7 7 8 8 8 8 9 9 9 10 10 9 10 10 10 11 11 11 11 11 12 12 12 12 13 13 13 13 14 13 13 13 13 13 13 13 14
7 6 7 7 8 8 8 8 9 10 9 9 9 10 10 11 11 11 11 11 12 12 13 13 13 14 14 14 15 15 16 15 15 16 16 16 16 16 16 17 17 17 17
8 8 9 8 8 9 9 10 10 10 11 11 11 11 12 12 13 13 13 13 14 14 15 15 15 15 16 16 17 17 17 18 18 18 17 18 18 18 18 19 19 19 19
8 9 9 9 9 10 11 11 12 12 12 13 13 13 13 14 14 14 15 15 15 16 17 17 16 17 17 18 18 19 19 20 20 20 19 19 20 21 21 21 20 21 21
9 9 9 9 10 11 11 12 12 12 12 12 13 14 14 15 16 16 17 17 17 18 18 18 18 19 18 19 20 20 20 20 21 21 22 22 23 23 23 22 22 23 22
10 10 10 9 10 10 11 10 11 11 12 13 14 14 15 16 17 17 18 18 19 20 20 20 21 21 21 22 22 23 23 23 23 24 24 24 25 24 25 25 26 26 26
10 11 11 11 11 10 10 10 11 12 12 13 14 15 15 16 17 18 19 19 20 21 21 21 22 23 23 23 23 24 23 23 24 24 26 26 26 27 27 28 28 28 29
11 12 12 11 11 11 11 11 11 12 13 13 14 15 15 17 18 18 19 20 20 21 22 22 23 23 24 24 24 24 24 24 24 26 26 27 28 29 29 29 29 29 29
12 12 12 12 11 11 12 11 12 12 13 14 15 16 16 17 18 19 19 19 20 20 21 22 23 23 23 23 23 24 25 25 25 26 26 27 29 29 30 30 30 29 30
12 12 12 13 12 12 12 12 12 12 13 14 14 15 16 17 18 19 19 19 19 20 21 22 23 22 22 23 23 23 24 24 24 25 26 26 27 28 28 30 31 30 31
12 13 14 14 14 13 12 12 12 12 12 13 13 14 15 17 17 18 19 19 19 20 20 21 22 23 23 24 24 24 23 24 25 26 27 28 28 28 28 29 30 30 31
13 13 14 13 13 13 12 11 12 12 12 13 14 14 14 15 16 17 18 18 19 19 20 20 21 22 23 23 24 24 25 25 26 26 27 28 28 29 30 31 32 32 33
13 13 13 13 13 13 13 12 12 12 13 13 14 15 15 16 17 17 18 18 18 19 20 21 21 21 22 23 24 25 26 26 27 28 29 29 30 30 31 32 33 34 34
14 14 14 14 14 13 13 13 13 13 14 14 15 15 16 16 17 17 17 18 19 20 21 21 22 23 24 24 25 26 26 27 28 29 30 30 30 30 31 32 34 35 36
14 14 14 14 14 13 13 13 13 14 15 15 15 15 16 16 17 17 18 19 20 20 21 22 23 23 24 25 25 26 26 27 29 30 30 31 32 32 32 34 35 36 36
15 14 14 14 14 14 13 14 14 14 15 15 15 16 16 17 18 18 19 20 20 21 21 22 23 24 25 25 26 27 28 28 29 31 32 33 33 34 34 35 35 35 36
16 16 15 15 15 15 14 14 14 15 15 16 17 17 17 18 19 19 19 20 21 22 22 23 24 25 26 27 28 29 30 30 31 32 32 33 33 34 34 35 35 36 37
16 16 16 15 15 15 15 15 15 16 16 16 17 18 19 19 19 19 20 21 21 22 24 25 26 27 28 28 29 30 31 32 32 32 33 34 34 35 36 36 37 37 38
16 16 15 16 16 16 16 16 16 16 17 18 18 19 20 20 20 20 21 22 23 24 26 27 27 28 28 29 30 31 31 32 32 33 34 34 35 35 36 37 37 37 38
17 16 15 15 16 16 17 17 17 18 18 18 19 20 21 21 22 22 23 24 25 26 27 28 28 29 29 30 31 31 32 32 33 34 35 35 35 35 35 36 36 37 37
Wind_Direction
22 13 42 44 17 328 239 217 196 169 155 167 189 182 167 191 309 340 14 19 17 12 357 347 342 346 347 343 336 332 323 321 309 299 294 291 291 292 293 297 286 278 269
357 6 357 334 306 284 259 235 234 221 209 211 219 221 232 249 267 286 300 311 329 335 332 324 325 332 330 329 326 323 316 310 303 296 291 289 285 283 286 286 280 279 280
343 342 330 300 278 268 257 245 242 242 235 230 230 236 244 253 257 263 270 276 284 293 287 288 291 300 304 303 309 315 308 302 297 292 289 287 284 283 284 283 278 276 279
328 321 318 301 282 269 260 252 243 243 241 240 239 239 244 251 251 255 265 268 274 280 283 281 280 284 291 290 291 296 298 293 291 291 288 287 284 281 282 280 277 277 277
330 310 307 301 286 280 268 266 263 256 255 251 250 250 249 252 256 260 265 267 269 273 277 277 277 280 282 284 285 287 289 287 285 284 282 283 283 278 278 277 276 276 277
325 311 308 303 288 276 271 271 266 264 264 257 254 253 253 256 259 264 266 266 269 271 274 274 274 276 278 280 281 282 282 282 284 283 281 279 278 277 276 275 276 276 275
324 310 306 298 289 276 272 275 264 261 263 261 257 256 258 259 261 266 267 268 270 274 276 276 275 276 277 279 279 279 279 280 282 282 280 279 278 276 274 273 275 274 273
317 307 302 293 288 280 274 272 265 261 262 262 261 260 261 263 263 266 269 271 271 273 275 277 276 277 277 278 280 280 278 278 281 281 278 277 277 277 276 274 273 274 274
317 308 298 291 289 287 279 271 263 260 261 261 263 264 263 265 266 269 269 270 271 272 276 277 276 276 276 279 281 283 282 280 280 280 277 275 276 277 277 276 273 272 274
324 316 304 295 294 293 287 277 269 262 262 263 264 265 265 266 267 269 272 271 271 273 277 278 278 278 278 278 280 282 282 280 279 279 278 276 277 276 277 275 273 274 274
328 326 317 302 299 297 289 279 273 266 262 263 264 266 267 267 268 272 272 273 275 276 276 277 278 279 279 277 276 278 280 280 279 280 278 277 278 277 277 275 274 274 274
329 328 323 315 306 300 297 286 276 268 264 265 268 271 269 268 268 271 271 272 275 279 279 277 278 279 279 278 276 277 278 278 278 280 280 278 278 277 276 276 276 275 273
323 324 322 317 310 304 299 291 282 273 269 271 271 272 271 270 269 270 272 274 275 277 278 280 279 279 280 281 278 278 278 277 278 279 280 279 277 276 276 277 278 277 275
317 320 320 316 310 305 301 294 285 277 278 277 273 273 273 271 271 273 274 275 276 276 278 279 279 280 280 279 278 278 279 279 279 280 280 281 278 276 276 277 278 278 277
316 316 317 317 314 310 306 299 289 283 282 284 281 276 275 276 275 275 276 277 277 277 278 280 281 281 283 281 280 282 282 281 281 281 282 283 282 279 277 277 277 277 276
318 318 317 315 313 310 308 307 298 292 288 288 287 282 280 281 279 279 277 277 279 279 280 280 282 283 285 282 281 283 282 282 281 282 283 284 283 282 279 276 276 274 275
320 318 317 314 314 313 309 307 303 299 295 292 290 289 287 286 285 284 279 278 281 282 283 284 286 286 285 284 284 286 285 285 284 284 285 286 285 284 281 280 279 278 278
321 320 316 314 313 313 313 311 308 303 300 297 293 292 292 293 291 288 283 283 285 287 288 287 287 288 287 285 285 286 287 286 286 285 286 287 286 284 282 281 280 279 279
320 321 320 317 316 315 314 310 309 304 302 301 296 294 294 294 292 290 288 288 289 289 288 288 289 290 290 287 285 286 285 284 285 285 286 286 287 286 284 283 282 281 280
320 319 320 319 317 315 313 309 307 306 305 304 300 297 296 295 294 293 291 289 290 291 291 290 291 291 291 290 289 289 287 287 287 287 287 287 287 287 285 284 284 284 283
320 317 317 318 317 315 313 310 308 308 309 309 304 301 300 299 297 295 294 293 293 294 293 293 294 292 291 291 292 290 288 290 291 290 288 288 287 286 285 285 285 285 284
317 317 316 316 316 314 312 310 308 308 310 309 305 303 302 301 298 296 296 295 295 296 297 295 294 293 293 292 292 293 292 292 292 291 290 289 288 288 287 286 286 286 286
317 316 313 312 311 310 309 308 307 308 308 309 307 305 304 301 299 297 296 297 298 297 297 297 298 298 295 294 294 294 294 295 294 293 293 293 292 292 290 288 288 287 287
315 316 312 308 307 308 308 308 307 307 307 309 309 307 304 302 301 300 297 297 299 299 299 299 299 300 299 297 297 297 297 297 296 295 294 294 294 294 292 291 291 290 289
314 314 313 308 305 307 307 307 308 309 311 311 309 307 306 305 304 303 302 302 302 303 302 302 302 301 300 299 299 299 299 299 299 299 298 297 296 296 295 295 294 293 292
312 310 310 309 306 306 305 307 309 309 310 310 309 308 307 306 305 305 304 304 305 305 305 305 304 304 303 302 301 301 300 300 300 299 299 298 298 298 297 297 296 295 295
Height
5896 5896 5896 5896 5897 5897 5897 5897 5898 5898 5898 5899 5899 5900 5900 5900 5901 5901 5901 5901 5901 5901 5901 5901 5901 5901 5901 5901 5901 5900 5900 5900 5900 5900 5900 5900 5900 5900 5900 5900 5900 5900 5900
5896 5896 5896 5896 5896 5896 5896 5897 5897 5898 5898 5899 5899 5899 5900 5900 5900 5901 5901 5901 5901 5901 5901 5901 5901 5901 5900 5900 5900 5900 5900 5900 5900 5899 5900 5899 5899 5899 5899 5899 5899 5899 5899
5895 5895 5895 5895 5895 5896 5896 5896 5897 5897 5898 5898 5898 5899 5899 5899 5900 5900 5900 5900 5900 5900 5900 5900 5900 5900 5900 5900 5900 5899 5899 5899 5899 5899 5899 5898 5898 5898 5898 5898 5898 5898 5898
5895 5895 5895 5894 5894 5895 5895 5895 5896 5896 5897 5897 5897 5898 5898 5898 5899 5899 5900 5900 5900 5900 5900 5900 5899 5899 5899 5899 5899 5898 5898 5898 5898 5897 5897 5897 5897 5897 5897 5897 5897 5897 5896
5894 5894 5894 5894 5893 5894 5894 5895 5895 5895 5896 5896 5896 5897 5897 5897 5898 5898 5899 5899 5899 5899 5899 5899 5898 5898 5898 5897 5897 5897 5897 5896 5896 5896 5896 5895 5895 5895 5895 5895 5895 5895 5895
5894 5893 5893 5892 5892 5892 5893 5893 5894 5894 5894 5894 5895 5895 5896 5896 5896 5897 5897 5897 5897 5897 5897 5897 5897 5896 5896 5896 5895 5895 5895 5894 5894 5894 5893 5893 5893 5893 5893 5892 5892 5892 5892
5893 5892 5892 5891 5891 5891 5891 5891 5891 5892 5892 5893 5893 5894 5894 5894 5895 5895 5895 5895 5895 5895 5895 5894 5894 5894 5893 5893 5893 5893 5892 5892 5892 5891 5891 5890 5890 5890 5890 5890 5889 5889 5889
5892 5891 5890 5890 5889 5889 5889 5889 5889 5890 5891 5891 5891 5892 5892 5893 5892 5893 5892 5892 5892 5892 5892 5891 5891 5891 5891 5890 5890 5890 5889 5889 5888 5888 5888 5887 5887 5887 5886 5886 5886 5885 5884
5891 5890 5889 5888 5887 5887 5887 5887 5887 5887 5888 5888 5888 5889 5890 5890 5890 5890 5890 5889 5889 5889 5889 5888 5888 5888 5887 5887 5886 5886 5886 5885 5885 5884 5884 5883 5883 5883 5882 5882 5881 5881 5881
5889 5888 5887 5886 5885 5885 5884 5884 5884 5884 5885 5885 5885 5886 5886 5887 5887 5887 5886 5886 5886 5885 5885 5885 5884 5884 5883 5883 5883 5882 5881 5881 5881 5880 5880 5879 5878 5878 5878 5877 5876 5876 5876
5888 5886 5885 5884 5883 5883 5882 5881 5881 5882 5882 5882 5882 5882 5882 5883 5883 5883 5883 5882 5882 5881 5881 5881 5880 5880 5879 5879 5878 5878 5877 5876 5876 5875 5875 5874 5873 5873 5872 5872 5871 5871 5870
5887 5885 5884 5882 5881 5880 5879 5878 5878 5879 5879 5879 5879 5879 5879 5879 5879 5879 5878 5878 5877 5877 5876 5876 5875 5875 5874 5874 5873 5873 5872 5871 5871 5870 5869 5868 5868 5867 5866 5866 5865 5864 5864
5886 5884 5883 5881 5879 5878 5877 5876 5876 5876 5876 5875 5875 5875 5875 5875 5875 5874 5874 5874 5873 5873 5872 5871 5870 5870 5869 5868 5867 5867 5866 5865 5865 5864 5863 5862 5861 5861 5860 5859 5858 5857 5857
5884 5883 5881 5879 5877 5876 5875 5874 5873 5872 5872 5872 5872 5871 5871 5871 5870 5870 5870 5869 5868 5868 5867 5866 5865 5864 5863 5862 5861 5861 5860 5859 5858 5858 5857 5855 5854 5854 5853 5852 5851 5850 5850
5882 5881 5879 5877 5876 5874 5873 5871 5870 5869 5869 5868 5868 5867 5867 5866 5866 5865 5864 5864 5864 5863 5863 5861 5860 5859 5857 5857 5856 5855 5854 5853 5852 5851 5850 5849 5847 5846 5845 5844 5844 5843 5842
5881 5879 5877 5875 5873 5872 5870 5869 5868 5867 5866 5865 5864 5863 5863 5862 5861 5860 5859 5859 5859 5859 5858 5856 5855 5854 5852 5851 5850 5849 5848 5847 5845 5844 5843 5842 5840 5839 5838 5837 5836 5835 5834
5879 5877 5875 5873 5871 5869 5868 5867 5865 5864 5863 5862 5861 5860 5859 5858 5857 5856 5855 5854 5853 5853 5852 5851 5849 5848 5847 5846 5845 5844 5842 5841 5839 5838 5836 5834 5833 5832 5830 5829 5828 5827 5826
5877 5875 5873 5871 5869 5867 5866 5864 5863 5862 5860 5859 5858 5857 5855 5854 5853 5852 5851 5850 5849 5848 5847 5846 5844 5843 5842 5840 5839 5838 5836 5835 5833 5831 5829 5827 5826 5824 5823 5821 5820 5818 5817
5874 5872 5870 5868 5866 5864 5863 5862 5860 5859 5858 5856 5855 5854 5852 5851 5849 5848 5847 5846 5844 5843 5842 5841 5840 5838 5836 5834 5833 5831 5830 5828 5826 5824 5822 5820 5818 5816 5814 5813 5811 5809 5808
5872 5870 5868 5865 5863 5862 5861 5859 5858 5856 5855 5853 5852 5850 5849 5847 5845 5844 5842 5841 5840 5839 5837 5836 5834 5832 5830 5828 5827 5825 5823 5821 5819 5817 5815 5813 5811 5808 5806 5804 5802 5800 5798
5869 5867 5865 5863 5861 5859 5858 5857 5855 5854 5852 5850 5848 5847 5845 5843 5841 5840 5839 5837 5835 5834 5832 5830 5829 5826 5824 5822 5820 5818 5816 5814 5811 5809 5807 5805 5802 5800 5798 5795 5793 5790 5788
5867 5864 5862 5861 5859 5857 5855 5854 5853 5851 5849 5847 5845 5843 5842 5840 5838 5836 5834 5833 5831 5829 5827 5825 5823 5821 5818 5816 5814 5811 5809 5807 5804 5802 5799 5796 5793 5790 5788 5785 5783 5780 5778
5864 5862 5860 5858 5856 5854 5853 5851 5850 5848 5846 5844 5842 5840 5838 5836 5834 5832 5830 5828 5827 5824 5822 5820 5818 5815 5812 5810 5807 5804 5801 5799 5796 5793 5790 5787 5784 5781 5778 5775 5772 5769 5767
5861 5859 5856 5854 5853 5851 5850 5848 5846 5845 5843 5841 5839 5837 5834 5832 5830 5828 5826 5824 5822 5819 5817 5814 5812 5809 5806 5803 5800 5797 5793 5790 5787 5784 5781 5778 5774 5771 5768 5765 5762 5759 5756
5857 5855 5853 5851 5850 5848 5846 5845 5843 5841 5839 5837 5835 5833 5830 5828 5826 5823 5821 5819 5816 5814 5811 5808 5805 5802 5798 5795 5792 5789 5786 5782 5779 5776 5772 5769 5765 5762 5758 5755 5751 5748 5745
5854 5852 5850 5848 5846 5845 5843 5841 5840 5838 5836 5833 5831 5829 5826 5824 5821 5819 5816 5813 5810 5807 5804 5801 5798 5794 5791 5788 5784 5781 5777 5774 5771 5767 5763 5760 5756 5753 5749 5745 5741 5738 5734